This is the latest recevied weather packets stored in our database for station/object EA3KZ-1. If no packets are shown the sender has not sent any weather packets the latest 10 day(s).
| Time | Temp. | Humidity | Pressure | Rain* | Wind** | Luminosity | Snow |
|---|---|---|---|---|---|---|---|
| 1777884070 | 18.89° C | 67% | 1008 hPa | 0 mm | - | - | - |
| 1777883467 | 18.89° C | 66% | 1008 hPa | 0 mm | - | - | - |
| 1777882865 | 18.89° C | 71% | 1007.9 hPa | 0 mm | - | - | - |
| 1777882262 | 18.33° C | 72% | 1008.1 hPa | 0 mm | - | - | - |
| 1777881660 | 18.89° C | 71% | 1008.2 hPa | 0 mm | - | - | - |
| 1777881057 | 17.78° C | 72% | 1008.1 hPa | 0 mm | - | - | - |
| 1777880454 | 17.78° C | 74% | 1008.1 hPa | 0 mm | - | - | - |
| 1777879852 | 17.22° C | 77% | 1008.4 hPa | 0 mm | - | - | - |
| 1777879249 | 16.67° C | 79% | 1008.3 hPa | 0 mm | - | - | - |
| 1777878647 | 16.11° C | 81% | 1008.5 hPa | 0 mm | - | - | - |
| 1777878044 | 15.56° C | 84% | 1008.4 hPa | 0 mm | - | - | - |
| 1777877441 | 15° C | 84% | 1008.6 hPa | 0 mm | - | - | - |
| 1777876839 | 15.56° C | 82% | 1008.3 hPa | 0 mm | - | - | - |
| 1777876236 | 15.56° C | 81% | 1008.2 hPa | 0 mm | - | - | - |
| 1777875633 | 15.56° C | 82% | 1008.3 hPa | 0 mm | - | - | - |
| 1777875031 | 15.56° C | 81% | 1008.3 hPa | 0 mm | - | - | - |
| 1777874427 | 15.56° C | 83% | 1008.1 hPa | 0 mm | - | - | - |
| 1777873825 | 15° C | 86% | 1008 hPa | 0 mm | - | - | - |
| 1777873222 | 14.44° C | 87% | 1008.2 hPa | 0 mm | - | - | - |
| 1777872619 | 13.89° C | 88% | 1008.5 hPa | 0 mm | - | - | - |
| 1777872017 | 13.89° C | 89% | 1008.5 hPa | 0 mm | - | - | - |
| 1777871474 | 13.89° C | 90% | 1008.5 hPa | 0 mm | - | - | - |
| 1777870872 | 13.89° C | 90% | 1008.5 hPa | 0 mm | - | - | - |
| 1777870269 | 13.89° C | 90% | 1008.5 hPa | 0 mm | - | - | - |
| 1777869667 | 13.89° C | 90% | 1008.6 hPa | 0 mm | - | - | - |
* Rain latest hour (hover to see other rain measurements)
** Current wind speed in m/s (hover to see current wind gust speed)